www.pogodaiklimat.ru

Погода и климат >> Архив погоды >> Индонезия >> Ранаи


ПОГОДА в Ранаи

  • Прогноз погоды в Ранаи
  • Монитор погоды в Ранаи

АРХИВ ПОГОДЫ в Ранаи

Время (UTC), дата Ветер
(напр.,м/с)
 
Видим.   Явления Облачность Т
(С)
Тd
(С)
f
(%)
Тe
(С)
Тes
(С)
Комфортность P
(гПа)
Po
(гПа)
Тmin
(С)
Tmax
(С)
R
(мм)
R24
(мм)
S
(см)
00 19.08 З 1 8000 м 9/9 600 м
[]
+26.4 +26.3 99 +40 +40 очень
душно
1011.6 1011.2 +24.5 +26.4 0.0
03 19.08 ЮВ 3 10 км 3/3 600 м
[]
+30.8 +27.0 80 +48 +58 опасность
перегрева
1011.7 1011.3 +24.5 +31.1
06 19.08 ЮЗ 4 10 км слаб. дождь 3/0 2000 м
[]
+25.6 +25.4 99 +37 +49 очень
душно
1010.5 1010.0 +24.5 +31.5 8
09 19.08 ЮЗ 5 1400 м дождь 5/5 50 м
[]
+26.1 +25.4 96 +38 +39 очень
душно
1008.7 1008.1 +24.5 +31.5
12 19.08 ЮЗ 2 10 км ясно +26.1 +26.0 99 +39 +39 очень
душно
1009.7 1009.2 +24.5 +31.5 12
00 20.08 З 2 7000 м 3/3 600 м
[]
+26.7 +24.4 87 +37 +39 очень
душно
1010.9 1010.3 +24.7 +26.7
03 20.08 Ю 7 10 км 3/3 600 м
[]
+32.3 +22.7 57 +42 +46 опасность
перегрева
1010.9 1010.4 +24.7 +32.4
06 20.08 Ю 6 10 км 3/3 600 м
[]
+33.2 +24.0 59 +45 +50 опасность
перегрева
1009.5 1009.0 +24.7 +33.3
09 20.08 Ю 6 10 км ясно +31.7 +22.6 59 +41 +43 опасность
перегрева
1008.2 1007.7 +24.7 +33.6
12 20.08 ЮЗ 3 10 км ясно +26.8 +24.1 85 +37 +37 очень
душно
1008.8 1008.3 +24.7 +33.6
00 21.08 ЮЗ 1 10 км ясно +26.6 +24.9 90 +38 +41 очень
душно
1009.8 1009.3 +24.4 +26.6
03 21.08 В 4 10 км ясно +31.2 +24.8 69 +44 +57 опасность
перегрева
1010.3 1009.8 +24.4 +31.3
06 21.08 ЮВ 4 10 км ясно +32.5 +24.9 64 +46 +59 опасность
перегрева
1008.7 1008.2 +24.4 +32.5
09 21.08 С 3 10 км 9/9 1000 м
[]
+29.5 +23.8 71 +40 +41 очень
душно
1008.1 1007.6 +24.4 +32.6
12 21.08 ЮЗ 2 10 км ясно +27.0 +24.8 88 +39 +39 очень
душно
1009.0 1008.5 +27.0 +30.7
03 22.08 ЮЗ 4 10 км 3/3 600 м
[]
+32.4 +23.1 58 +43 +52 опасность
перегрева
1011.6 1011.1 +28.4 +33.5
06 22.08 С 1 10 км ясно +27.2 +22.9 77 +36 +59 опасность
солнечного
удара
1010.3 1009.7 +26.0 +34.0
09 22.08 Ю 6 10 км 3/0
[]
+31.8 +24.5 65 +44 +46 опасность
перегрева
1008.7 1008.1 +26.0 +34.0
12 22.08 ЮЗ 3 10 км 3/3 600 м
[]
+27.2 +24.2 84 +38 +38 очень
душно
1010.7 1010.1 +26.0 +34.0
00 23.08 ЮЗ 2 10 км ясно +27.6 +24.8 85 +39 +42 очень
душно
1011.9 1011.3 +23.7 +27.6
03 23.08 ЮЗ 5 10 км 3/3 1000 м
[]
+33.4 +24.5 60 +46 +53 опасность
перегрева
1011.8 1011.3 +23.7 +33.5
06 23.08 Ю 6 10 км 5/5 1000 м
[]
+32.4 +24.1 62 +45 +49 опасность
перегрева
1009.2 1008.7 +23.7 +33.7
09 23.08 Ю 6 10 км 3/3 600 м
[]
+32.3 +24.6 64 +45 +47 опасность
перегрева
1008.6 1008.1 +23.7 +34.0
12 23.08 З 3 10 км 9/0
[]
+27.7 +23.6 78 +38 +38 очень
душно
1010.1 1009.6 +23.7 +34.0
00 24.08 ЮЗ 2 10 км ясно +27.0 +24.8 88 +39 +41 очень
душно
1010.9 1010.4 +24.4 +27.0
03 24.08 ЮЗ 3 10 км 9/9 600 м
[]
+31.5 +24.5 66 +44 +45 опасность
перегрева
1011.3 1010.8 +24.4 +31.7
06 24.08 ЮЗ 4 10 км 3/3 1000 м
[]
+34.5 +21.3 46 +42 +51 опасность
перегрева
1009.0 1008.5 +24.4 +34.7
09 24.08 З 5 10 км ясно +32.8 +21.2 51 +41 +43 опасность
перегрева
1008.1 1007.6 +24.4 +34.9
12 24.08 ЮЗ 2 10 км ясно +27.2 +23.7 81 +37 +37 очень
душно
1010.0 1009.5 +24.4 +34.9
00 25.08 З 3 10 км ясно +28.2 +24.8 82 +40 +42 очень
душно
1010.6 1010.1 +25.3 +28.2
03 25.08 ЮЗ 4 10 км 5/5 1000 м
[]
+33.1 +22.9 55 +43 +49 опасность
перегрева
1011.2 1010.7 +32.0 +33.3
06 25.08 З 5 10 км ясно +35.4 +17.2 34 +38 +49 очень
душно
1009.0 1008.5 +32.0 +35.5
09 25.08 Ю 5 10 км 5/5 1000 м
[]
+31.4 +24.1 65 +43 +44 опасность
перегрева
1008.4 1007.9 +31.4 +35.5
12 25.08 З 3 10 км 5/0 2000 м
[]
+27.7 +23.9 80 +38 +38 очень
душно
1010.2 1009.7 +27.7 +35.5

 

Местоположение метеостанции Ранаи (Индонезия): широта 3.95 долгота 108.38 высота над уровнем моря 2 м.

В архиве по умолчанию представлена погода в Ранаи за последнюю неделю. Архивные данные за месяц целиком и за предыдущие месяцы, начиная с января 2011 года, Вы можете получить, выбрав интересующий диапазон дат из раскрывающегося списка и нажав кнопку "Ввод!".


*Определитесь, кто Вы:
робот инопланетянин человек

Внимание! Время в таблицах - всемирное. Для получения местного времени необходимо прибавить поправку, которая равна 7 ч.

Смотрите также архив погоды в соседних городах и на ближайших метеорологических станциях:

Погода в Таремпе (Индонезия) (251 км)
Погода в Парохе (Индонезия) (263 км)
Погода в Кучинге (Малайзия) (350 км)
Погода в Сибу (Малайзия) (423 км)
Погода в Понтианаке (Индонезия) (470 км)
Погода в Хуентране (Вьетнам) (515 км)
Погода в Бинталу (Малайзия) (523 км)
Погода в Мерсинге (Малайзия) (531 км)
Погода в Танджунгпинанге (Индонезия) (545 км)
Погода в Синтанге (Индонезия) (551 км)

Пояснения к столбцам:

Ветер - указаны скорость ветра в м/с - средняя за 10 мин, порывы в срок и между сроками (в фигурных скобках) и направление, откуда дует ветер: С - северный, СВ - северо-восточный, В - восточный, ЮВ - юго-восточный, Ю - южный, ЮЗ - юго-западный, З - западный, СЗ - северо-западный.
Видимость - горизонтальная дальность видимости в метрах или километрах. При видимости от 1 до 10 км при отсутствии осадков обычно наблюдается дымка, при ухудшении видимости до 1 км и менее - туман. В сухую погоду видимость может ухудшаться дымом, пылью или мглою.
Явления - указаны атмосферные явления, наблюдавшиеся в срок или в последний час перед сроком; фигурными скобками обозначены явления, наблюдавшиеся между сроками (за 1-3 часа до срока); квадратными скобками обозначены град или гололедные отложения с указанием их диаметра в мм.
Облачность - указаны через наклонную черту общая и нижняя облачность в баллах и высота нижней границы облаков в метрах; квадратными скобками обозначены формы облаков: Ci - перистые, Cs - перисто-слоистые, Cc - перисто-кучевые, Ac - высококучевые, As - высокослоистые, Sc - слоисто-кучевые, Ns - слоисто-дождевые, Cu - кучевые, Cb - кучево-дождевые. Подробнее классификацию облаков см. в Атласе облаков (PDF).
T - Температура воздуха - температура, измеренная на высоте 2 м над землей.
Td - Температура точки росы - температура, при понижении до которой содержащийся в воздухе водяной пар достигнет насыщения.
f - Относительная влажность воздуха - влажноcть воздуха, измеренная на высоте 2 м над землей.
Te - Эффективная температура - температура, которую ощущает одетый по сезону человек в тени. Характеристика душности погоды. При расчете учитывается влияние влажности воздуха и скорости ветра на теплоощущения человека.
Tes - Эффективная температура на солнце - температура, которую ощущает человек, с поправкой на солнечный нагрев. Характеристика знойности погоды. Зависит от высоты солнца над горизонтом, облачности и скорости ветра. Ночью, в пасмурную погоду, а также при ветре 12 м/с и более поправка равна нулю.
P - Атмосферное давление - приведенное к уровню моря атмосферное давление.
Po - Атмосферное давление - измеренное на уровне метеостанции атмосферное давление.
Tmin - Минимальная температура - минимум температуры воздуха на высоте 2 м над землей.
Tmax - Максимальная температура - максимум температуры воздуха на высоте 2 м над землей.
R - Количество осадков - Количество выпавших осадков за период времени, мм. При наведении курсора мыши на число - период времени, за который выпало указанное количество осадков.
R24 - Количество осадков - Количество выпавших осадков за 24 часа, мм.
S - Снежный покров - Высота снежного покрова, см. При наведении курсора мыши на число - состояние снежного покрова и степень покрытия местности в баллах.